This is the latest recevied weather packets stored in our database for station/object WW3TRG. If no packets are shown the sender has not sent any weather packets the latest 10 day(s).
| Time | Temp. | Humidity | Pressure | Rain* | Wind** | Luminosity | Snow |
|---|---|---|---|---|---|---|---|
| 1777554031 | 9.44° C | 99% | 1007.2 hPa | 0 mm | - | 66 W/m² | - |
| 1777553727 | 9.44° C | 99% | 1007.2 hPa | 0 mm | - | 62 W/m² | - |
| 1777553425 | 9.44° C | 99% | 1007.4 hPa | 0 mm | - | 48 W/m² | - |
| 1777553121 | 9.44° C | 99% | 1007.3 hPa | 0 mm | - | 48 W/m² | - |
| 1777552820 | 9.44° C | 99% | 1007.3 hPa | 0 mm | - | 50 W/m² | - |
| 1777552516 | 9.44° C | 99% | 1006.9 hPa | 0 mm | - | 69 W/m² | - |
| 1777552213 | 9.44° C | 99% | 1007 hPa | 0 mm | - | 111 W/m² | - |
| 1777551909 | 9.44° C | 99% | 1006.6 hPa | 0 mm | - | 93 W/m² | - |
| 1777551607 | 8.89° C | 99% | 1007 hPa | 0 mm | - | 57 W/m² | - |
| 1777551304 | 8.89° C | 99% | 1006.8 hPa | 0 mm | - | 64 W/m² | - |
| 1777551001 | 8.89° C | 99% | 1006.9 hPa | 0 mm | - | 43 W/m² | - |
| 1777550698 | 8.89° C | 99% | 1007.2 hPa | 0 mm | - | 39 W/m² | - |
| 1777550394 | 8.89° C | 99% | 1007.2 hPa | 0 mm | - | 28 W/m² | - |
| 1777550090 | 8.89° C | 99% | 1007.2 hPa | 0 mm | - | 18 W/m² | - |
| 1777549787 | 8.89° C | 99% | 1007.1 hPa | 0 mm | - | 18 W/m² | - |
| 1777549483 | 8.89° C | 99% | 1007.3 hPa | 0 mm | - | 12 W/m² | - |
| 1777549179 | 8.89° C | 99% | 1007.1 hPa | 0 mm | - | 18 W/m² | - |
| 1777548876 | 8.89° C | 99% | 1007.2 hPa | 0 mm | - | 23 W/m² | - |
| 1777548573 | 8.89° C | 99% | 1007.3 hPa | 0 mm | - | 18 W/m² | - |
| 1777548269 | 8.89° C | 99% | 1007.2 hPa | 0.51 mm | - | 18 W/m² | - |
| 1777547966 | 8.89° C | 99% | 1007.3 hPa | 0.51 mm | - | 12 W/m² | - |
| 1777547662 | 8.33° C | 99% | 1007.3 hPa | 0 mm | - | 12 W/m² | - |
| 1777547358 | 8.89° C | 99% | 1007.1 hPa | 0 mm | - | 7 W/m² | - |
| 1777547057 | 8.89° C | 99% | 1007.4 hPa | 0 mm | - | 5 W/m² | - |
| 1777546754 | 8.33° C | 99% | 1007 hPa | 0 mm | - | 6 W/m² | - |
* Rain latest hour (hover to see other rain measurements)
** Current wind speed in m/s (hover to see current wind gust speed)